• în Republica Moldova
  • Lista ţărilor
  • Pe 7 zile
  • Temperatura apei
  • Hartă satelitară
  • Meteo pe hartă
  • Widget-uri
  • user-avatar
    Intrare

    Meteo pe oră la Sidi Bu-l-Abbas

    Astăzi, 27 Mai, Sâmbătă

    Timp Temperatura Precipitaţii Vânt Presiune Umiditate
    00:00 +19°C° 0 mm 1 m/s 718 mmHg 86%
    01:00 +19°C° 0 mm 1 m/s 718 mmHg 87%
    02:00 +18°C° 0 mm 1 m/s 718 mmHg 88%
    03:00 +18°C° 0 mm 1 m/s 717 mmHg 89%
    04:00 +18°C° 0 mm 1 m/s 718 mmHg 85%
    05:00 +19°C° 0 mm 1 m/s 718 mmHg 81%
    06:00 +20°C° 0 mm 1 m/s 718 mmHg 77%
    07:00 +22°C° 0 mm 1 m/s 719 mmHg 67%
    08:00 +25°C° 0 mm 1 m/s 719 mmHg 57%
    09:00 +27°C° 0 mm 2 m/s 719 mmHg 47%
    10:00 +29°C° 0 mm 2 m/s 719 mmHg 43%
    11:00 +30°C° 0 mm 3 m/s 719 mmHg 39%
    12:00 +33°C° 0 mm 3 m/s 719 mmHg 35%
    13:00 +33°C° 0 mm 4 m/s 719 mmHg 36%
    14:00 +33°C° 0 mm 4 m/s 719 mmHg 36%
    15:00 +33°C° 0 mm 4 m/s 718 mmHg 37%
    16:00 +32°C° 0 mm 4 m/s 718 mmHg 42%
    17:00 +29°C° 0 mm 4 m/s 718 mmHg 46%
    18:00 +28°C° 0 mm 4 m/s 718 mmHg 51%
    19:00 +26°C° 0 mm 3 m/s 718 mmHg 61%
    20:00 +23°C° 0 mm 2 m/s 718 mmHg 71%
    21:00 +21°C° 0 mm 1 m/s 719 mmHg 80%
    22:00 +20°C° 0 mm 1 m/s 719 mmHg 83%
    23:00 +20°C° 0 mm 1 m/s 719 mmHg 86%

    Mâine, 28 Mai, Duminică

    Timp Temperatura Precipitaţii Vânt Presiune Umiditate
    00:00 +19°C° 0 mm 1 m/s 719 mmHg 89%
    01:00 +19°C° 0 mm 1 m/s 719 mmHg 89%
    02:00 +19°C° 0 mm 1 m/s 718 mmHg 90%
    03:00 +19°C° 0 mm 1 m/s 718 mmHg 91%
    04:00 +19°C° 0 mm 1 m/s 719 mmHg 88%
    05:00 +20°C° 0 mm 1 m/s 719 mmHg 86%
    06:00 +20°C° 0 mm 1 m/s 719 mmHg 83%
    07:00 +21°C° 0 mm 2 m/s 719 mmHg 75%
    08:00 +24°C° 0 mm 2 m/s 720 mmHg 67%
    09:00 +25°C° 0 mm 2 m/s 720 mmHg 59%
    10:00 +27°C° 0 mm 2 m/s 720 mmHg 53%
    11:00 +29°C° 0 mm 3 m/s 720 mmHg 48%
    12:00 +30°C° 0 mm 3 m/s 720 mmHg 42%
    13:00 +31°C° 0 mm 3 m/s 720 mmHg 42%
    14:00 +32°C° 0 mm 4 m/s 719 mmHg 41%
    15:00 +32°C° 0 mm 4 m/s 719 mmHg 41%
    16:00 +30°C° 0 mm 4 m/s 718 mmHg 47%
    17:00 +28°C° 0 mm 4 m/s 718 mmHg 53%
    18:00 +26°C° 0 mm 3 m/s 718 mmHg 58%
    19:00 +25°C° 0,2 mm 3 m/s 718 mmHg 67%
    20:00 +23°C° 0,2 mm 2 m/s 719 mmHg 76%
    21:00 +21°C° 0,2 mm 1 m/s 719 mmHg 85%
    22:00 +20°C° 0,3 mm 2 m/s 719 mmHg 87%
    23:00 +19°C° 0,3 mm 2 m/s 719 mmHg 88%

    Poimâine, 29 Mai, Luni

    Timp Temperatura Precipitaţii Vânt Presiune Umiditate
    00:00 +19°C° 0,3 mm 2 m/s 719 mmHg 90%
    01:00 +19°C° 0,1 mm 2 m/s 719 mmHg 90%
    02:00 +19°C° 0,1 mm 2 m/s 719 mmHg 90%
    03:00 +19°C° 0,1 mm 2 m/s 719 mmHg 90%
    04:00 +19°C° 0,1 mm 2 m/s 719 mmHg 89%
    05:00 +19°C° 0,1 mm 2 m/s 719 mmHg 88%
    06:00 +19°C° 0,1 mm 2 m/s 720 mmHg 87%
    07:00 +20°C° 0 mm 2 m/s 720 mmHg 83%
    08:00 +20°C° 0 mm 2 m/s 720 mmHg 78%
    09:00 +21°C° 0 mm 3 m/s 720 mmHg 73%
    10:00 +22°C° 0 mm 3 m/s 720 mmHg 69%
    11:00 +24°C° 0 mm 3 m/s 720 mmHg 66%
    12:00 +25°C° 0 mm 3 m/s 720 mmHg 62%
    13:00 +25°C° 0 mm 4 m/s 720 mmHg 62%
    14:00 +23°C° 0 mm 4 m/s 720 mmHg 62%
    15:00 +23°C° 0 mm 4 m/s 719 mmHg 62%
    16:00 +23°C° 0,2 mm 4 m/s 719 mmHg 65%
    17:00 +22°C° 0,2 mm 3 m/s 719 mmHg 68%
    18:00 +21°C° 0,2 mm 3 m/s 719 mmHg 71%
    19:00 +20°C° 0,7 mm 2 m/s 719 mmHg 77%
    20:00 +20°C° 0,7 mm 1 m/s 720 mmHg 82%
    21:00 +19°C° 0,7 mm 1 m/s 720 mmHg 88%
    22:00 +16°C° 0,6 mm 0 m/s 720 mmHg 89%
    23:00 +16°C° 0,6 mm 0 m/s 720 mmHg 89%

    30 Mai, Marţi

    Timp Temperatura Precipitaţii Vânt Presiune Umiditate
    00:00 +16°C° 0,6 mm 0 m/s 720 mmHg 90%
    01:00 +16°C° 0,7 mm 0 m/s 720 mmHg 90%
    02:00 +18°C° 0,7 mm 1 m/s 719 mmHg 90%
    03:00 +18°C° 0,7 mm 1 m/s 719 mmHg 91%
    04:00 +18°C° 0,3 mm 1 m/s 719 mmHg 89%
    05:00 +19°C° 0,3 mm 1 m/s 719 mmHg 87%
    06:00 +17°C° 0,3 mm 0 m/s 720 mmHg 85%
    07:00 +21°C° 0,2 mm 1 m/s 720 mmHg 78%
    08:00 +22°C° 0,2 mm 1 m/s 720 mmHg 71%
    09:00 +24°C° 0,2 mm 1 m/s 720 mmHg 64%
    10:00 +24°C° 0,6 mm 2 m/s 720 mmHg 62%
    11:00 +25°C° 0,6 mm 2 m/s 720 mmHg 60%
    12:00 +25°C° 0,6 mm 3 m/s 720 mmHg 59%
    13:00 +25°C° 0,7 mm 3 m/s 719 mmHg 59%
    14:00 +26°C° 0,7 mm 3 m/s 719 mmHg 60%
    15:00 +26°C° 0,7 mm 3 m/s 719 mmHg 60%
    16:00 +25°C° 0,8 mm 3 m/s 719 mmHg 63%
    17:00 +24°C° 0,8 mm 3 m/s 719 mmHg 67%
    18:00 +24°C° 0,8 mm 3 m/s 719 mmHg 70%
    19:00 +21°C° 0,4 mm 2 m/s 719 mmHg 76%
    20:00 +20°C° 0,4 mm 2 m/s 720 mmHg 82%
    21:00 +20°C° 0,4 mm 1 m/s 720 mmHg 88%
    22:00 +20°C° 0,1 mm 1 m/s 720 mmHg 88%
    23:00 +20°C° 0,1 mm 1 m/s 720 mmHg 89%

    31 Mai, Miercuri

    Timp Temperatura Precipitaţii Vânt Presiune Umiditate
    00:00 +20°C° 0,1 mm 1 m/s 720 mmHg 89%
    01:00 +19°C° 0 mm 1 m/s 720 mmHg 90%
    02:00 +19°C° 0 mm 1 m/s 720 mmHg 90%
    03:00 +18°C° 0 mm 1 m/s 719 mmHg 91%
    04:00 +19°C° 0 mm 1 m/s 720 mmHg 89%
    05:00 +20°C° 0 mm 1 m/s 720 mmHg 87%
    06:00 +20°C° 0 mm 1 m/s 720 mmHg 85%
    07:00 +21°C° 0,2 mm 1 m/s 721 mmHg 81%
    08:00 +22°C° 0,2 mm 1 m/s 721 mmHg 77%
    09:00 +23°C° 0,2 mm 1 m/s 721 mmHg 73%
    10:00 +23°C° 0,4 mm 2 m/s 721 mmHg 70%
    11:00 +24°C° 0,4 mm 2 m/s 721 mmHg 67%
    12:00 +24°C° 0,4 mm 3 m/s 721 mmHg 64%
    13:00 +25°C° 0,3 mm 3 m/s 721 mmHg 63%
    14:00 +25°C° 0,3 mm 3 m/s 721 mmHg 62%
    15:00 +25°C° 0,3 mm 3 m/s 720 mmHg 61%
    16:00 +24°C° 0,4 mm 3 m/s 720 mmHg 63%
    17:00 +24°C° 0,4 mm 3 m/s 720 mmHg 65%
    18:00 +22°C° 0,4 mm 3 m/s 720 mmHg 67%
    19:00 +21°C° 0,5 mm 3 m/s 720 mmHg 69%
    20:00 +21°C° 0,5 mm 2 m/s 721 mmHg 72%
    21:00 +20°C° 0,5 mm 2 m/s 721 mmHg 75%
    22:00 +20°C° 0,2 mm 2 m/s 721 mmHg 74%
    23:00 +19°C° 0,2 mm 2 m/s 721 mmHg 73%

    1 Iunie, Joi

    Timp Temperatura Precipitaţii Vânt Presiune Umiditate
    00:00 +19°C° 0,2 mm 2 m/s 720 mmHg 72%
    01:00 +20°C° 0 mm 1 m/s 720 mmHg 72%
    02:00 +19°C° 0 mm 1 m/s 720 mmHg 73%
    03:00 +19°C° 0 mm 1 m/s 720 mmHg 73%
    04:00 +20°C° 0 mm 1 m/s 720 mmHg 71%
    05:00 +20°C° 0 mm 1 m/s 720 mmHg 69%
    06:00 +21°C° 0 mm 1 m/s 720 mmHg 66%
    07:00 +24°C° 0 mm 2 m/s 721 mmHg 58%
    08:00 +26°C° 0 mm 2 m/s 721 mmHg 50%
    09:00 +28°C° 0 mm 2 m/s 721 mmHg 41%
    10:00 +30°C° 0 mm 2 m/s 721 mmHg 37%
    11:00 +33°C° 0 mm 3 m/s 721 mmHg 34%
    12:00 +34°C° 0 mm 3 m/s 721 mmHg 30%
    13:00 +35°C° 0 mm 3 m/s 720 mmHg 30%
    14:00 +35°C° 0 mm 4 m/s 720 mmHg 29%
    15:00 +35°C° 0 mm 4 m/s 719 mmHg 29%
    16:00 +34°C° 0 mm 4 m/s 719 mmHg 34%
    17:00 +32°C° 0 mm 4 m/s 719 mmHg 38%
    18:00 +30°C° 0 mm 4 m/s 719 mmHg 43%
    19:00 +28°C° 0,2 mm 3 m/s 719 mmHg 50%
    20:00 +26°C° 0,2 mm 2 m/s 719 mmHg 57%
    21:00 +24°C° 0,2 mm 1 m/s 719 mmHg 64%
    22:00 +24°C° 0 mm 1 m/s 719 mmHg 64%
    23:00 +23°C° 0 mm 1 m/s 719 mmHg 63%
    Arată mai mult